RH
31 30 28 27 25 23 22 20 18 17 15 14 13 12 11 11 10 9 9 9 8 8 8 8 8 8 8 8 8 8 8 8 8 8 9 9 10 11 11 12 13 13 14 14 15 16 17 17 18 19 20 20 21 21 22 22 22 22 22 23 24 25 25 25 24 24 23 22 21 20 21 22 25 25 27 28 26 24 21 20 21 21 22 22 22 23 24 25
38 36 34 33 30 28 26 24 23 20 18 16 15 14 12 12 11 11 10 10 9 9 9 9 9 8 8 8 8 8 8 8 8 8 8 8 9 9 10 11 11 12 13 13 14 14 15 15 16 17 17 18 19 19 20 20 20 21 21 22 23 23 24 23 23 23 22 22 21 21 23 24 25 25 26 28 26 24 22 20 21 22 23 22 22 22 24 26
44 42 40 38 36 33 31 28 26 24 22 20 18 16 15 13 13 12 12 11 11 10 10 10 9 9 9 9 9 9 8 8 8 8 8 8 8 8 8 9 9 10 11 12 12 13 13 14 14 15 16 16 17 17 18 18 19 19 20 21 22 21 21 21 21 21 21 21 21 22 23 24 24 24 25 26 25 23 22 21 22 22 22 22 22 23 25 25
49 47 46 45 43 40 37 34 31 29 27 25 22 20 18 16 15 14 13 12 12 11 11 11 11 10 10 10 10 9 9 9 8 8 8 8 8 8 8 7 8 8 9 10 11 11 12 12 13 14 14 14 15 15 16 17 17 17 18 19 19 19 20 20 20 19 21 21 21 22 23 23 24 24 23 24 24 22 21 21 22 23 23 23 24 24 24 23
52 52 52 52 51 48 45 43 40 37 33 31 28 26 24 21 19 18 16 15 14 13 13 12 12 11 11 11 10 10 10 9 9 9 8 8 8 8 8 7 7 7 8 8 9 10 10 11 11 12 13 13 13 14 14 15 15 16 16 17 17 18 18 18 18 19 20 20 20 21 22 22 22 21 21 23 24 22 21 21 22 23 24 24 25 24 22 22
54 54 55 57 57 57 55 54 53 50 46 42 39 35 32 29 27 24 22 20 18 17 16 15 14 13 13 12 12 11 10 10 10 9 9 9 8 8 8 7 7 8 7 7 8 8 8 9 10 10 11 11 12 12 13 13 14 14 14 15 15 16 16 16 17 18 18 19 19 19 19 20 20 20 21 23 22 21 20 20 21 22 23 24 25 23 21 21
58 57 60 63 65 65 65 65 64 62 58 54 51 48 44 40 37 34 31 29 27 25 23 21 20 18 17 16 15 15 14 13 12 11 11 10 9 9 9 8 8 8 8 8 8 7 8 8 8 8 9 9 10 10 11 12 12 13 13 13 14 14 15 15 15 16 17 17 17 16 17 18 19 19 20 21 20 19 20 19 20 21 22 24 24 23 21 22
67 68 70 72 73 72 72 71 70 68 65 62 59 57 54 50 47 44 41 38 36 33 32 30 28 27 25 23 22 21 20 19 17 16 15 14 13 12 11 10 10 9 9 9 8 8 8 8 8 8 8 8 8 9 9 10 10 11 11 11 12 12 13 13 14 14 15 16 15 15 16 18 18 18 19 20 20 20 20 19 20 21 21 23 24 23 22 22
75 76 78 78 78 77 76 76 75 73 70 67 64 62 60 57 53 51 48 46 43 41 38 36 34 33 31 29 28 26 26 25 23 22 20 19 18 16 16 14 13 12 11 11 10 10 9 9 9 8 8 8 8 8 8 9 9 9 9 10 10 10 11 12 12 14 14 13 14 14 15 16 16 17 18 19 20 20 19 18 18 20 20 22 25 24 21 21
85 83 82 81 81 81 81 80 80 79 76 72 68 66 64 62 58 54 52 50 49 46 44 41 38 36 35 33 32 31 30 30 28 27 26 24 23 21 20 18 18 16 15 15 14 13 13 11 11 11 10 10 11 10 10 10 10 10 10 10 10 11 12 12 12 13 13 13 13 14 15 16 16 17 19 20 20 19 18 18 17 19 21 22 24 23 20 20
93 91 89 88 87 85 83 82 81 80 79 75 71 68 66 65 62 58 56 55 54 53 51 48 45 41 39 37 36 36 36 35 33 32 31 30 29 27 25 24 22 21 20 19 18 17 16 15 15 14 13 13 14 13 13 13 12 13 14 13 12 13 13 13 15 14 14 15 14 16 17 17 19 19 21 22 19 17 19 20 18 17 19 21 23 22 20 19
88 88 88 88 87 85 83 81 79 78 77 75 72 69 67 66 64 62 60 60 60 60 59 56 53 49 45 43 43 42 42 41 39 38 37 36 34 33 31 29 28 27 26 24 23 21 19 19 18 17 17 17 16 16 17 16 15 17 17 16 15 16 17 18 18 17 18 18 16 19 21 21 22 23 24 24 20 19 20 23 20 17 19 21 23 23 20 19
82 81 82 82 82 82 82 82 80 79 78 77 76 74 73 72 70 69 66 65 64 63 63 61 59 56 51 49 48 47 47 46 45 43 42 40 39 37 35 34 33 33 31 30 28 26 25 23 22 22 21 19 20 21 20 18 18 20 19 19 20 20 23 24 22 20 22 23 21 24 26 26 27 26 27 26 22 21 23 26 24 19 20 23 26 29 26 23
81 80 80 79 79 78 78 78 77 77 76 76 77 77 76 75 73 71 68 65 62 61 61 61 60 59 57 54 51 49 50 50 49 47 45 44 42 41 39 38 38 38 38 38 35 33 31 29 28 27 24 24 27 25 22 22 22 23 23 24 25 25 28 28 24 24 27 28 28 31 32 31 30 27 28 28 26 27 30 32 29 23 22 26 31 36 35 30
80 78 77 76 75 74 72 71 71 70 69 68 69 69 69 68 67 65 62 60 58 56 56 58 60 61 60 58 56 53 53 52 49 49 49 49 49 48 45 42 41 42 43 45 45 45 43 40 37 33 31 31 31 30 27 27 28 27 28 29 28 28 31 30 26 30 32 31 31 33 36 36 32 29 31 31 31 37 40 35 34 32 28 30 35 39 40 38
82 79 76 74 72 71 69 68 66 65 64 62 62 62 63 63 62 61 59 57 56 55 54 56 59 60 60 63 64 61 56 53 52 54 55 56 58 57 54 51 49 47 46 48 51 54 56 57 55 48 41 38 39 37 33 34 36 33 30 32 34 34 35 33 33 38 37 34 35 39 45 44 37 34 34 36 38 43 47 42 41 42 36 35 40 44 47 48
85 81 76 74 72 69 66 63 62 61 60 60 59 59 59 58 58 57 57 56 55 55 55 56 57 58 62 66 69 69 64 60 58 59 59 60 66 67 64 64 61 57 54 54 53 56 61 66 70 67 59 54 48 41 42 44 38 37 42 44 44 48 49 41 37 43 44 40 40 46 55 51 42 42 42 43 46 51 61 61 54 50 46 47 50 51 55 58
84 79 76 73 69 65 62 59 58 58 58 59 59 59 58 57 57 56 55 54 54 55 55 55 54 56 63 67 72 76 72 67 63 61 60 63 70 73 74 75 74 71 67 63 60 59 61 67 73 74 71 66 61 58 58 50 44 58 71 65 54 53 54 46 36 40 48 49 48 55 66 61 49 51 57 54 52 57 76 93 89 73 58 55 60 64 67 65
82 79 76 71 66 63 62 61 61 62 62 63 63 63 63 63 63 62 60 59 58 57 56 56 55 57 61 65 71 75 73 73 70 66 64 65 69 74 78 81 83 83 79 74 69 67 71 77 77 70 65 64 70 79 72 61 75 90 82 72 68 62 60 57 49 47 54 66 72 72 81 81 60 54 72 81 73 63 71 97 111 100 80 68 65 72 78 70
85 82 76 70 67 67 67 67 68 68 69 68 68 68 69 70 72 71 69 67 65 63 60 59 57 59 63 64 64 66 72 75 74 72 71 71 73 76 79 81 86 86 84 82 75 76 86 87 80 68 62 68 80 88 80 77 95 94 78 79 86 87 81 70 65 61 59 73 91 91 92 97 82 67 75 88 87 74 71 91 108 107 98 86 77 77 79 75
89 85 78 70 70 71 72 73 73 74 74 72 71 71 72 74 76 77 77 76 74 71 69 65 61 62 67 68 63 60 66 69 74 83 82 79 78 78 81 81 85 87 82 84 83 88 97 91 78 63 63 89 100 90 85 90 99 95 90 88 87 99 100 84 77 69 54 59 81 96 102 107 105 91 71 63 68 68 77 99 110 106 98 91 87 78 73 79
94 90 81 73 72 73 76 78 80 79 79 79 77 74 72 73 76 79 81 83 83 81 80 75 70 70 70 71 65 57 58 64 78 93 88 82 79 77 82 82 85 88 84 87 94 100 105 94 78 66 75 103 99 81 91 104 104 99 95 91 89 100 106 99 83 63 57 68 80 96 110 113 111 103 83 68 62 55 64 95 114 112 104 100 94 80 72 81
95 92 85 77 73 73 78 83 85 85 85 83 79 75 73 73 74 76 80 86 87 85 87 85 80 81 79 75 69 60 59 64 77 92 87 79 80 80 87 90 89 91 91 92 94 98 105 97 81 80 97 109 87 78 101 110 102 97 93 95 98 98 97 94 76 59 71 93 100 105 108 107 105 105 101 88 74 59 54 78 105 112 111 111 99 84 79 80
94 91 87 82 76 73 76 82 87 90 89 85 80 77 75 73 71 71 75 83 86 84 86 88 83 84 84 78 75 70 67 66 72 91 89 73 78 88 94 98 95 95 97 93 86 91 105 103 95 97 106 108 91 87 103 107 104 100 92 91 95 95 90 84 74 68 75 92 108 109 96 94 104 109 108 99 90 82 64 60 82 102 111 113 102 87 80 76
97 92 87 84 80 75 74 78 86 91 90 87 83 80 77 74 72 70 72 76 82 82 79 79 76 80 85 81 80 78 75 75 77 93 96 73 69 84 93 99 98 98 99 90 85 96 106 100 96 102 106 104 95 93 101 106 106 99 90 89 89 90 87 79 76 73 73 92 111 103 83 89 109 110 104 102 102 101 85 65 71 95 109 109 104 94 84 81
100 95 89 84 82 79 77 76 81 86 88 89 86 83 80 77 75 73 74 75 81 82 76 71 67 70 77 75 75 77 78 84 83 89 100 88 73 77 86 92 95 99 96 86 85 95 103 99 93 100 106 100 94 97 100 100 101 100 100 100 93 92 89 76 73 72 73 92 103 89 79 94 111 108 102 104 103 101 97 85 77 87 101 106 107 100 93 93
94 94 93 88 82 81 81 79 78 80 83 85 84 84 81 78 77 75 75 76 77 79 76 73 67 64 68 66 68 73 73 78 80 85 95 93 83 80 82 85 94 100 89 81 88 91 95 98 95 102 104 93 93 101 98 91 95 102 107 108 102 100 96 81 77 75 71 82 90 84 88 98 106 107 100 98 97 94 98 97 82 74 82 96 105 102 97 96
80 87 93 91 85 81 81 81 81 80 81 82 82 83 82 79 79 76 75 76 73 71 71 69 65 64 67 65 64 68 70 71 75 85 88 84 87 89 84 83 92 97 84 79 89 88 86 84 85 104 111 95 90 96 97 93 93 96 101 107 107 103 101 95 92 86 72 71 82 92 96 92 96 107 101 91 90 88 92 97 89 76 74 84 98 107 106 101
69 77 84 88 86 83 82 82 83 83 83 84 84 86 86 84 83 81 79 78 73 68 67 66 64 63 63 62 61 61 66 70 74 84 88 83 87 90 87 83 84 88 83 80 86 84 78 70 70 96 110 100 89 86 91 95 94 98 99 103 106 103 102 101 101 99 86 78 88 101 94 79 89 107 106 98 91 79 80 94 101 95 91 90 92 97 101 104
67 72 76 80 83 83 83 84 85 86 85 85 85 85 86 85 84 83 80 77 74 69 66 64 63 62 59 59 61 58 61 66 67 74 81 80 77 76 80 81 79 81 77 78 83 78 69 63 66 82 92 93 90 82 83 86 88 96 98 98 101 102 103 102 101 103 98 95 103 105 89 74 83 102 110 105 91 75 73 87 99 102 105 104 93 84 81 86
68 72 74 77 81 82 82 82 82 84 85 84 83 82 82 82 80 80 77 74 72 68 63 60 60 60 59 58 60 58 58 60 60 63 68 69 68 68 72 75 76 79 76 75 78 72 66 64 67 73 75 78 82 81 80 79 81 86 87 88 90 93 96 97 99 100 99 103 108 105 92 77 75 93 111 109 97 90 86 82 80 85 102 111 105 96 86 77
75 77 79 80 81 81 79 78 78 79 81 81 81 81 81 80 78 76 74 70 67 65 61 58 57 57 57 56 56 55 55 55 54 55 56 58 61 62 65 66 69 75 75 71 69 70 72 70 69 74 76 74 72 73 76 76 77 79 82 85 86 87 86 85 87 88 89 95 97 95 92 84 80 93 109 109 100 96 92 83 76 78 93 105 108 107 99 87
83 83 84 82 81 80 78 77 76 76 77 76 75 75 74 74 71 69 68 66 63 60 57 55 54 52 51 52 51 50 50 50 49 49 49 51 54 54 56 57 60 67 68 63 62 66 70 67 65 71 77 77 73 72 76 79 79 80 85 88 88 89 88 85 84 80 79 81 81 80 78 77 80 88 98 102 96 90 86 84 82 83 87 89 95 105 109 103
85 83 83 81 80 79 77 76 75 74 73 72 70 69 67 66 64 62 60 59 58 55 53 52 51 49 47 48 48 46 46 46 46 45 44 46 49 49 51 51 52 56 57 54 56 59 60 60 61 63 65 69 73 75 76 76 75 77 82 83 82 87 90 90 87 83 80 78 79 82 79 74 74 74 78 83 83 82 83 81 79 80 83 81 80 90 102 107
83 81 81 81 80 79 77 77 75 73 71 68 66 64 62 60 58 57 55 53 53 52 49 47 47 47 46 46 45 44 44 44 43 42 42 43 45 45 46 48 47 48 48 48 48 49 50 53 57 58 57 59 65 69 69 69 67 67 70 72 76 82 84 81 78 77 75 74 79 89 89 86 85 80 76 76 76 75 73 72 71 71 76 81 77 77 84 92
82 83 83 83 82 80 78 75 72 69 67 64 62 59 58 57 55 55 53 50 50 50 50 47 46 46 47 47 46 43 44 45 43 43 43 43 44 43 44 45 45 45 47 46 44 44 45 47 49 50 50 51 53 55 59 63 62 60 60 62 69 74 73 71 69 69 68 65 69 78 81 82 85 88 91 92 92 91 82 74 72 69 65 66 68 70 73 75
86 85 83 80 77 73 70 67 65 64 63 61 59 57 55 56 56 55 53 52 52 53 54 53 51 49 48 48 48 45 44 46 45 43 43 43 43 43 43 44 43 43 45 44 43 43 43 44 45 45 45 46 46 45 48 52 54 54 55 54 56 58 59 60 61 64 65 61 60 66 70 69 69 76 88 95 98 101 98 88 82 78 69 62 59 59 62 66
80 76 72 68 66 65 64 64 64 63 63 63 61 59 58 58 60 60 58 55 55 54 53 50 48 47 45 43 42 41 39 39 39 38 37 37 37 36 36 37 36 36 37 36 36 37 38 37 38 38 38 39 39 39 40 42 44 46 46 46 47 47 47 47 49 51 54 55 55 59 63 63 62 64 72 80 83 86 91 89 83 79 78 77 69 58 57 62
70 66 65 66 67 69 69 68 68 67 67 67 66 65 64 61 59 59 56 50 47 45 44 42 39 37 36 35 34 34 32 31 31 31 32 31 30 31 32 31 30 30 31 31 31 31 31 30 31 32 32 31 32 33 32 32 33 35 36 37 38 40 39 39 40 40 41 43 45 48 51 54 57 60 62 65 69 73 75 75 74 74 78 82 75 62 57 58
68 69 71 73 73 73 71 71 73 75 75 73 69 64 61 55 48 47 45 41 39 36 35 35 34 33 32 32 32 32 32 31 30 30 31 31 32 33 33 31 32 33 33 34 35 32 30 29 31 33 34 32 32 32 32 31 30 30 31 32 32 33 33 33 33 33 33 34 34 36 39 43 46 50 52 52 56 61 62 61 62 66 70 71 70 66 61 59
75 78 78 76 76 76 76 76 76 74 69 63 58 54 51 47 42 39 37 38 38 38 36 34 33 33 34 34 35 36 36 35 35 34 34 35 35 34 34 34 35 36 35 35 36 34 32 31 31 34 35 35 34 34 33 33 33 32 32 32 32 32 31 30 30 29 29 29 29 29 30 33 36 37 39 41 43 45 48 50 52 55 59 60 62 64 64 63
81 84 83 82 83 81 77 72 66 59 52 47 45 44 43 41 39 37 35 33 35 40 42 41 40 39 38 38 39 39 41 40 41 42 42 42 41 38 37 36 35 36 37 36 34 32 34 34 32 32 33 34 36 37 36 35 35 36 34 32 32 32 32 33 33 33 33 32 31 28 25 26 29 30 30 32 34 35 37 39 41 43 46 48 50 53 55 57
86 89 91 87 81 73 64 57 50 44 41 39 39 38 36 34 35 37 38 36 35 38 42 44 47 46 44 42 42 43 45 45 46 48 49 49 48 44 40 39 38 38 38 38 37 36 35 34 33 34 35 36 38 39 40 41 39 37 36 35 36 38 38 38 37 37 38 38 37 33 27 27 30 30 29 30 30 29 30 30 32 34 35 37 39 41 44 45
90 88 82 72 63 55 48 44 41 39 37 35 34 34 33 33 32 32 37 43 43 40 40 44 48 51 49 46 46 47 48 48 49 50 51 51 50 47 44 44 43 41 40 42 43 41 38 36 36 38 38 38 39 41 45 47 44 41 40 41 43 43 42 42 42 42 41 41 43 40 33 32 36 35 33 34 33 31 30 29 28 29 30 30 31 31 34 37
76 66 56 49 46 42 38 37 36 35 34 32 32 32 32 36 38 35 35 45 52 46 42 44 47 50 50 49 48 50 51 51 50 49 51 52 52 51 49 48 46 45 47 49 46 43 43 43 42 40 37 38 44 50 54 54 50 46 46 47 48 47 46 46 47 47 45 46 48 46 40 38 42 42 39 39 38 36 35 33 31 30 29 29 29 28 28 29
50 45 41 39 38 36 35 34 32 33 34 33 33 35 37 39 43 44 40 44 52 52 49 49 48 48 49 50 52 53 55 55 52 52 54 54 55 56 55 53 49 46 50 54 49 45 45 46 46 46 44 45 51 55 58 59 55 51 49 50 52 53 53 53 52 50 48 48 47 46 44 42 44 49 51 50 46 40 36 35 34 33 32 33 32 30 29 28
38 37 37 36 34 34 34 34 35 37 40 41 40 43 46 46 48 51 47 42 45 47 50 54 55 54 52 51 53 56 57 56 56 57 57 56 58 62 64 63 57 49 47 48 48 50 50 49 52 54 53 53 52 54 56 57 55 52 52 53 55 56 57 59 58 55 52 49 47 48 52 50 47 51 57 58 52 44 39 37 36 36 38 39 37 35 34 34
36 34 35 37 39 39 39 40 42 43 46 49 50 52 56 59 62 64 60 54 48 44 44 50 57 62 61 57 54 55 55 55 57 59 60 62 66 69 70 69 65 59 52 48 49 52 53 54 57 60 61 60 57 55 56 56 55 55 57 57 57 56 58 60 59 58 58 56 54 57 61 57 51 51 53 56 55 51 45 40 36 36 37 38 40 40 39 39
36 35 36 39 42 43 44 46 48 50 52 53 56 62 66 66 68 72 73 72 67 58 52 51 54 62 69 66 60 58 57 56 58 62 66 68 69 71 71 68 65 61 57 57 58 55 51 54 60 65 68 68 65 62 58 56 55 56 58 59 57 57 60 62 63 64 66 64 61 62 61 57 58 60 56 53 52 51 48 43 38 37 38 40 43 43 43 43
36 37 39 40 44 46 48 53 58 65 72 72 70 73 71 66 66 66 68 73 75 71 64 57 55 62 71 72 67 64 61 58 57 61 64 66 67 68 68 64 62 60 57 59 62 57 52 52 55 57 60 65 71 72 65 58 55 53 54 56 56 59 64 69 71 72 70 65 62 60 54 52 61 68 62 54 51 49 49 47 45 43 43 45 46 46 46 46
39 41 43 46 51 58 65 73 79 83 87 87 85 82 77 73 72 70 70 72 75 78 74 66 64 66 68 69 67 64 59 55 56 58 58 59 61 64 64 61 61 62 60 60 59 55 54 53 51 48 48 54 66 70 66 64 59 51 52 57 60 64 67 69 70 69 69 68 66 62 56 53 56 60 57 55 54 54 53 52 51 49 49 50 51 50 48 44
49 54 60 66 77 86 89 91 89 83 77 77 80 82 81 80 77 76 77 76 77 81 79 72 70 67 63 62 60 58 55 53 55 55 53 53 54 56 59 61 61 62 62 63 61 56 54 53 51 48 44 48 59 64 63 62 58 56 64 71 70 66 62 63 67 71 73 73 67 62 58 55 53 52 53 55 55 54 53 54 55 54 51 50 49 46 42 39
Wind_Speed
41 41 41 42 42 43 44 45 47 49 50 52 55 57 60 63 65 68 70 72 74 75 76 77 78 78 79 79 80 81 82 83 84 86 87 88 90 91 93 96 98 99 101 103 104 105 106 107 107 108 108 108 109 108 108 108 108 108 106 105 104 103 104 106 109 110 113 114 114 112 108 103 99 97 95 96 101 106 109 108 104 101 101 100 98 96 94 94
36 37 37 37 37 38 39 40 41 42 44 46 48 50 53 55 58 60 63 66 68 70 72 73 74 75 76 77 78 79 80 81 83 84 84 86 87 88 89 91 93 95 96 98 100 101 102 103 105 106 107 107 108 108 107 108 108 107 106 105 103 104 106 109 111 112 112 113 111 109 105 102 100 98 97 98 102 106 108 107 103 100 100 100 100 97 93 91
34 33 33 33 33 34 34 35 36 37 39 40 42 44 46 49 51 53 56 59 61 64 66 68 70 71 72 74 75 76 77 79 80 81 82 83 84 85 86 87 89 90 92 93 95 97 98 100 101 103 104 105 105 105 106 106 106 106 105 103 104 106 107 109 112 111 110 110 107 105 102 100 100 100 99 99 103 105 105 104 101 99 99 99 98 94 91 91
31 31 31 30 30 30 31 31 32 33 34 35 37 38 40 43 45 47 50 52 55 57 60 62 64 66 68 70 71 73 75 76 77 78 79 80 81 82 83 84 85 87 88 89 91 92 94 95 97 99 100 101 102 103 103 104 104 104 103 102 104 106 106 108 110 107 105 104 101 99 99 98 100 102 101 99 100 103 104 101 97 94 94 94 92 91 92 95
29 29 28 28 28 28 28 28 28 29 30 31 32 33 35 37 39 42 44 46 49 51 54 56 58 61 63 65 67 69 70 71 73 74 75 76 77 79 80 81 82 83 85 86 87 89 90 91 93 94 95 97 98 100 100 101 102 101 100 101 103 104 104 105 104 101 100 99 97 96 98 99 100 102 100 96 97 100 100 97 92 89 88 88 90 92 95 95
26 26 26 26 25 25 25 25 25 25 26 27 28 29 30 32 34 36 38 40 43 45 47 50 52 54 56 59 61 63 64 65 67 69 70 72 73 75 76 77 78 79 81 82 83 85 86 87 89 90 91 93 94 96 97 97 98 97 98 100 100 100 101 101 98 96 95 95 97 98 98 97 96 96 94 93 97 98 97 94 91 86 84 85 90 94 94 89
24 24 23 23 23 23 23 23 23 24 24 25 26 26 27 28 30 32 33 35 37 39 41 43 46 48 50 52 54 56 57 59 61 62 64 66 68 70 71 73 74 75 76 78 79 80 82 83 85 86 87 89 90 91 92 92 93 93 95 97 96 96 97 96 92 91 90 93 99 99 94 91 92 93 92 94 97 95 94 92 89 84 82 83 88 92 89 84
23 22 22 22 22 22 23 23 23 24 24 25 25 26 26 27 28 29 30 32 33 34 36 38 40 42 43 45 47 48 50 52 53 55 57 59 61 63 65 67 69 70 71 73 74 76 77 79 80 82 82 84 84 85 86 87 87 89 91 92 92 92 93 90 87 86 88 93 97 95 90 88 91 92 91 92 91 89 91 90 85 83 81 80 83 86 84 81
23 23 23 23 24 24 24 24 25 25 25 25 26 26 27 27 28 28 29 29 30 31 33 34 35 37 38 39 41 42 43 45 46 48 50 52 54 55 57 59 61 63 65 66 68 70 71 73 75 76 77 78 79 80 82 83 84 86 87 87 88 88 86 85 83 85 89 91 91 88 87 86 87 88 86 86 86 87 90 88 83 80 79 77 77 81 82 79
26 26 26 27 27 27 27 27 27 27 27 27 27 27 28 28 28 28 28 28 29 30 30 31 32 33 34 35 35 36 38 39 40 41 43 45 46 48 50 51 53 55 57 58 60 62 64 66 68 70 71 71 73 75 76 77 79 80 80 81 83 81 81 82 81 84 87 86 84 83 83 83 83 83 80 82 85 87 84 81 80 78 76 74 73 77 79 76
27 28 28 29 29 28 28 28 28 28 29 29 29 29 29 29 29 29 29 29 29 29 30 30 31 31 32 32 32 33 34 35 36 37 37 39 40 41 43 44 46 48 49 51 53 55 57 58 60 62 63 64 66 68 69 71 73 72 74 77 77 76 77 78 78 80 80 80 80 78 78 78 78 77 76 80 84 83 75 73 78 78 73 70 70 73 75 72
28 29 29 30 30 30 30 29 29 30 30 30 30 31 31 31 31 31 31 31 31 31 31 31 31 32 32 31 32 33 33 33 33 34 34 35 36 37 38 39 41 42 43 45 47 48 49 51 53 54 56 58 60 60 62 65 66 66 69 70 70 71 71 71 73 74 73 75 75 72 72 73 73 72 73 77 79 75 67 67 76 77 69 65 65 68 71 69
30 30 30 31 31 31 31 31 32 31 32 32 32 33 33 33 33 33 33 33 33 33 33 33 33 33 32 33 33 33 32 33 33 33 33 34 34 34 35 36 37 37 38 39 41 42 43 44 45 47 49 50 51 53 56 59 59 59 61 62 62 63 62 65 68 68 66 67 67 66 67 68 68 68 68 72 72 67 62 64 72 71 64 61 61 63 65 65
30 30 31 31 32 32 32 33 33 33 33 34 34 34 35 35 35 35 35 35 34 34 34 35 35 35 34 34 34 34 34 34 33 33 33 33 33 33 33 33 33 34 34 35 35 36 37 38 39 41 42 42 44 47 50 51 51 52 53 54 56 56 55 59 61 59 58 59 60 61 61 62 64 64 63 65 63 57 57 61 65 65 60 56 55 57 59 60
30 30 30 30 31 31 32 32 33 33 34 34 34 35 35 36 36 36 36 36 36 35 35 35 36 36 36 36 36 36 36 35 34 33 33 33 33 32 32 31 31 31 31 32 31 31 31 31 33 34 35 36 38 41 42 43 44 45 46 47 49 49 50 54 53 51 52 53 55 55 55 58 59 57 57 58 54 50 54 58 59 60 57 52 51 53 54 55
30 30 30 31 31 32 32 33 33 34 34 34 35 35 36 36 37 37 37 36 36 36 36 36 37 37 36 37 37 37 37 37 35 35 34 33 33 33 32 31 30 30 29 30 29 28 28 27 28 29 29 30 33 35 35 36 37 39 40 41 41 43 44 46 44 44 47 48 48 47 49 53 53 51 52 51 47 45 50 53 54 55 53 48 47 48 48 49
31 31 31 32 32 33 33 34 34 34 35 35 35 36 37 37 37 38 38 38 37 37 37 37 37 37 37 38 38 39 39 38 37 36 36 34 34 34 32 32 31 30 29 28 28 27 27 26 26 26 26 27 30 30 30 31 33 32 32 33 34 36 39 41 39 39 41 42 42 41 45 50 48 45 46 44 41 39 41 47 50 50 48 44 43 43 43 45
32 32 32 32 33 33 34 33 33 33 33 33 34 35 35 36 36 37 38 38 38 38 38 38 38 37 38 39 39 40 40 39 39 38 37 36 36 35 34 33 32 31 30 29 28 27 26 26 27 27 27 27 28 28 28 29 28 28 28 30 32 34 36 38 36 34 35 37 37 37 43 47 43 39 40 39 37 33 34 42 46 46 45 42 41 41 41 42
32 32 32 33 33 33 32 31 31 30 30 31 31 32 32 33 34 35 35 36 37 38 38 38 38 38 39 40 40 41 40 40 40 39 39 38 38 37 36 35 35 34 33 31 30 28 28 28 28 28 27 27 27 28 28 27 28 30 30 30 31 33 34 34 31 29 29 29 31 34 39 42 39 35 35 35 33 30 32 39 44 45 45 42 40 39 40 41
32 32 32 32 32 31 30 29 29 28 28 28 28 29 29 30 31 32 33 33 34 35 36 37 37 38 40 41 41 41 41 41 40 40 41 41 40 39 38 38 38 37 35 34 32 31 32 31 31 30 27 27 28 29 28 27 30 32 31 30 30 32 34 32 29 30 29 25 27 31 35 38 39 38 36 34 31 28 31 38 44 45 44 42 40 39 39 39
32 32 32 31 31 30 29 29 28 28 28 27 27 27 27 28 29 30 30 31 32 32 33 34 35 36 39 41 42 41 40 40 40 42 43 43 42 41 41 40 40 40 38 37 35 35 36 35 34 31 29 31 33 31 29 30 32 33 32 32 31 32 35 33 32 32 30 27 26 28 33 40 43 43 40 36 33 28 30 38 45 47 45 42 42 40 38 38
32 32 31 31 30 30 30 29 29 29 28 28 27 27 27 26 27 28 28 29 30 30 31 31 32 33 36 39 41 40 39 39 40 43 45 44 43 42 42 42 42 42 40 39 38 38 39 39 37 34 32 36 36 33 32 35 36 35 34 34 34 35 37 37 35 32 30 28 29 32 38 43 45 46 44 40 37 32 30 36 45 48 47 45 44 41 38 39
33 32 32 31 31 31 31 30 30 30 30 29 28 28 27 27 27 27 27 28 29 30 30 30 30 31 33 36 38 38 38 39 40 44 45 44 42 42 42 44 43 43 42 42 41 41 42 42 40 37 38 41 39 35 36 39 40 39 37 37 38 39 41 40 36 33 32 32 35 40 43 42 43 47 48 45 42 38 34 37 43 47 49 49 46 43 41 41
33 33 33 32 32 32 32 32 32 32 31 31 30 30 29 29 29 28 28 29 30 30 30 30 30 31 33 33 34 35 36 37 39 43 46 43 41 42 43 44 44 43 44 44 42 41 43 44 43 42 43 45 43 40 41 42 43 43 42 41 42 42 43 42 38 36 36 37 40 45 43 40 44 48 49 47 45 44 40 38 41 47 50 51 48 45 44 43
36 35 34 34 33 34 34 33 33 33 33 33 32 32 32 32 31 31 30 31 31 32 31 31 31 31 33 33 32 33 33 35 36 40 44 43 41 42 44 45 45 45 45 44 42 42 44 45 44 45 46 47 46 45 46 46 46 46 46 46 46 46 46 44 41 40 39 41 45 47 42 40 47 50 48 48 48 48 46 41 41 47 51 51 49 47 46 44
39 38 37 36 35 35 35 35 35 35 35 35 35 34 34 34 34 33 33 33 34 35 34 34 33 33 33 33 33 33 33 34 35 37 40 42 41 42 43 45 45 46 47 45 43 44 45 45 45 45 47 48 47 48 49 49 48 48 49 51 50 50 50 48 46 44 43 45 48 48 44 43 50 53 50 51 51 50 50 48 46 48 50 51 50 48 47 47
40 40 39 38 37 37 37 37 37 37 37 37 37 37 37 37 36 36 36 36 37 37 37 37 37 36 36 36 35 35 34 35 36 37 39 40 41 42 42 43 44 47 47 45 45 46 46 46 45 46 49 48 48 49 50 49 49 49 52 54 54 54 54 52 50 49 48 48 49 49 48 48 51 54 53 52 52 52 52 53 51 49 49 50 51 51 50 49
42 42 41 40 39 39 39 39 39 39 39 39 39 40 40 39 39 39 38 39 40 39 39 40 39 38 39 39 38 37 37 37 37 39 40 40 41 42 43 43 44 46 46 45 46 47 47 47 45 47 50 50 49 50 50 50 49 50 52 54 55 56 56 55 54 54 52 50 50 53 54 51 51 55 55 54 53 53 53 54 54 52 50 51 52 53 53 52
43 43 42 41 41 40 40 40 40 40 41 41 41 42 42 42 42 42 42 43 43 42 42 42 42 42 42 42 42 41 41 41 41 42 43 43 43 44 44 44 45 46 46 45 47 48 48 46 44 47 50 51 51 50 50 51 50 51 53 54 55 56 56 56 56 57 56 53 54 58 58 52 51 56 58 57 56 54 52 53 54 54 54 55 55 55 54 54
43 43 43 42 42 42 41 41 41 42 42 42 43 43 43 44 44 45 45 45 46 46 45 45 45 46 45 44 45 45 45 45 45 45 46 47 47 46 47 47 47 48 48 47 49 49 48 47 45 47 49 50 51 51 51 51 51 53 55 55 56 56 57 57 57 58 56 55 59 62 60 54 52 56 61 61 59 56 55 55 55 54 54 57 59 57 56 55
44 43 43 43 42 42 41 41 42 42 43 43 43 44 44 45 45 46 47 47 48 48 48 47 47 48 47 47 48 48 48 48 48 48 49 50 50 50 50 51 51 51 51 51 51 51 50 48 48 49 50 51 52 52 52 52 52 54 55 56 57 57 58 58 58 58 57 57 61 62 60 57 53 56 63 64 60 59 60 59 57 55 55 58 60 60 59 57
43 43 43 43 42 42 41 42 42 42 43 44 44 45 45 46 47 47 48 49 49 50 49 48 48 49 49 49 50 50 50 51 50 50 51 52 52 53 53 53 53 55 56 55 54 53 53 52 52 52 53 54 53 53 54 54 54 55 55 56 57 59 59 59 59 59 58 60 63 62 60 58 54 57 63 65 62 62 63 62 60 59 59 60 61 61 62 61
42 42 42 42 42 42 42 42 43 43 44 45 45 46 46 47 48 48 49 50 51 51 50 50 51 51 50 51 52 51 52 52 52 52 52 53 54 54 55 55 55 57 59 58 56 56 57 56 55 55 57 57 57 57 57 58 58 57 58 59 59 60 61 61 61 61 60 61 63 63 61 58 57 59 63 66 65 63 64 64 63 63 64 64 62 62 63 64
42 41 42 42 42 42 42 43 43 44 45 45 46 46 47 48 48 49 50 50 51 53 52 51 52 53 52 53 54 53 53 53 54 54 53 53 54 55 56 57 57 58 60 59 58 58 59 58 58 59 59 59 59 61 62 62 61 61 62 63 62 63 65 64 64 63 62 62 61 63 63 60 60 61 63 66 66 65 65 66 66 65 65 66 65 64 65 65
41 41 41 42 42 42 43 43 44 44 45 46 46 47 48 49 49 50 51 51 51 53 54 53 53 53 54 54 55 55 54 55 55 54 54 55 55 56 56 58 58 59 59 60 59 59 58 58 60 61 61 61 61 63 64 65 65 64 66 66 66 68 70 69 68 67 66 64 62 64 65 62 62 63 63 65 67 68 68 68 69 68 67 67 66 66 66 67
41 41 41 41 42 42 43 43 44 45 46 47 47 48 48 49 49 50 51 52 51 51 52 53 52 51 51 52 54 53 52 53 53 53 54 54 55 55 56 57 58 57 59 60 59 59 58 58 60 61 61 62 63 63 63 65 67 67 68 68 69 72 73 71 71 71 71 68 65 67 68 65 64 64 64 66 69 71 71 69 70 70 69 67 67 67 67 68
40 41 41 42 42 44 44 45 45 46 46 47 47 47 47 47 47 48 48 48 48 47 47 48 49 48 47 47 49 50 48 47 48 50 50 50 50 51 52 54 56 55 56 57 57 57 57 56 59 60 60 62 63 62 61 63 66 67 68 70 72 74 74 74 73 72 74 72 69 70 72 70 68 66 66 70 73 73 74 73 72 72 71 70 69 68 68 69
41 42 42 43 44 45 45 45 45 44 44 44 44 44 44 44 44 45 45 45 44 44 44 44 44 44 44 43 45 46 45 43 43 45 45 45 45 45 47 50 50 50 49 50 52 53 52 51 54 56 57 58 59 58 58 60 63 65 68 70 71 73 74 75 75 74 74 74 71 71 74 73 71 70 71 74 77 77 77 77 75 74 73 74 73 71 69 70
43 43 44 44 44 44 44 43 42 42 41 41 42 41 42 42 42 41 42 42 42 41 40 41 41 40 40 40 41 42 43 41 40 40 41 42 41 41 44 45 44 45 44 45 48 49 47 46 47 50 53 53 53 54 55 57 59 62 65 66 67 70 71 72 74 75 75 75 73 72 72 72 72 73 75 77 79 80 80 80 78 77 76 77 78 76 73 72
43 43 43 43 42 42 41 40 40 40 40 39 40 40 40 40 40 38 38 39 40 40 38 38 39 38 38 39 39 40 41 41 40 39 39 40 40 41 43 41 41 43 43 44 48 48 46 44 42 46 51 50 50 52 54 56 58 60 62 63 63 65 68 69 71 72 74 75 74 72 70 68 70 74 77 79 79 81 82 81 80 80 80 80 81 80 79 77
41 41 41 40 40 40 40 39 39 40 39 38 38 38 37 37 38 37 35 35 38 40 40 38 38 38 38 38 39 39 40 40 41 41 41 42 43 43 42 40 41 45 45 46 48 48 46 45 42 44 49 49 50 53 54 56 58 60 61 62 62 64 66 68 68 69 71 72 71 71 67 63 65 72 76 78 79 80 80 80 80 80 81 81 82 82 82 82
39 39 40 40 40 40 40 40 39 38 38 36 36 36 36 36 37 38 38 37 36 38 40 40 39 40 39 39 39 40 41 41 42 44 45 46 48 46 44 43 43 45 48 49 49 46 46 47 45 45 47 48 50 53 55 57 59 61 62 61 61 62 64 66 66 66 68 70 70 72 68 61 62 70 74 75 76 77 78 78 79 80 81 82 82 82 83 83
38 38 39 40 40 40 39 39 38 37 36 35 35 37 37 36 37 38 39 39 38 38 39 40 40 42 41 41 41 42 43 44 44 46 47 49 51 50 48 47 46 47 48 50 50 48 48 49 47 46 47 48 50 53 57 60 62 61 60 60 60 61 62 64 65 65 67 68 69 73 71 62 61 68 73 73 73 74 76 76 76 77 79 81 82 82 83 84
38 37 38 40 40 38 36 36 36 36 36 36 35 38 39 39 39 40 39 40 41 40 39 39 41 43 44 44 43 44 46 46 46 48 49 50 53 53 51 50 50 50 49 50 51 51 51 51 50 49 49 49 50 54 59 63 64 61 59 59 60 62 62 63 64 66 66 66 68 73 71 63 60 66 70 72 73 73 75 76 76 76 77 79 81 81 82 83
37 36 36 38 38 37 35 35 36 36 38 37 37 39 40 40 41 42 39 39 42 43 40 40 43 45 46 46 45 46 48 49 48 49 50 52 53 54 54 53 54 52 51 53 54 52 52 54 54 54 51 49 50 55 60 64 65 62 60 60 61 62 64 64 66 68 67 65 67 71 70 63 60 63 67 70 73 75 76 76 77 77 77 79 80 81 81 82
35 34 34 35 36 35 36 37 36 38 39 39 39 40 41 41 42 44 41 38 42 45 43 43 45 46 47 47 47 48 50 51 51 51 52 53 54 56 57 58 58 54 53 56 56 54 54 55 56 56 54 51 52 57 61 64 64 62 61 60 60 62 65 67 70 70 69 68 67 67 67 64 59 59 63 68 72 76 78 78 77 77 77 78 80 81 81 81
33 31 32 35 36 35 37 38 38 39 40 40 39 40 41 42 43 45 44 41 42 45 44 45 48 49 49 49 49 50 51 52 52 53 54 54 55 58 59 62 63 60 57 57 57 57 57 56 56 57 56 56 57 59 61 64 64 62 61 60 60 62 66 70 72 72 70 70 67 63 65 66 61 57 60 66 72 77 78 78 77 76 77 78 79 80 80 80
32 31 32 35 37 37 38 39 39 39 40 40 40 40 42 43 44 46 47 46 45 46 45 46 49 52 54 53 52 52 53 53 53 55 56 56 57 59 61 63 65 65 63 61 59 59 59 56 57 59 59 60 61 61 62 64 63 62 61 60 60 64 68 71 71 70 71 72 68 63 65 68 63 58 58 64 71 75 76 78 77 77 77 77 77 78 79 79
33 34 34 36 38 39 39 40 41 41 42 42 41 43 45 45 46 48 49 50 50 50 49 48 48 51 56 57 56 55 55 54 54 55 57 59 59 61 63 64 65 67 66 63 64 64 61 57 58 59 59 61 63 65 65 65 64 62 60 59 62 66 69 70 70 70 72 73 69 66 66 64 61 59 61 65 69 72 75 76 76 76 75 75 75 76 77 79
35 36 37 38 40 42 42 42 43 44 45 45 45 46 49 48 49 50 50 52 54 55 54 52 50 51 56 59 59 59 58 57 56 57 59 60 61 62 64 65 65 68 67 65 66 67 64 61 60 61 59 58 63 67 68 67 66 63 58 59 63 67 68 70 71 72 72 72 69 68 66 60 57 62 66 66 67 69 72 73 74 74 73 73 74 76 77 78
38 39 39 40 43 45 44 45 46 46 47 48 48 50 51 52 52 52 52 54 55 57 59 56 54 55 57 59 61 63 62 60 58 60 61 61 61 63 64 65 65 67 67 67 68 68 66 65 64 64 60 57 62 68 67 67 68 63 58 60 66 69 70 71 71 70 70 70 69 69 66 60 57 62 66 65 64 66 68 70 71 72 72 72 74 76 78 78
41 42 42 42 45 48 48 48 50 50 49 49 51 52 53 54 55 54 55 56 56 59 61 60 58 59 59 60 62 64 64 63 61 62 63 63 63 63 64 65 66 66 67 68 70 69 69 67 66 67 63 59 63 69 68 67 65 59 58 65 70 72 72 69 67 67 69 70 70 68 66 62 60 61 63 64 64 64 65 67 69 71 71 72 74 76 77 75
Wind_Direction
259 259 258 257 256 255 254 253 252 251 250 249 249 248 247 247 247 247 247 247 247 247 248 248 249 250 250 251 251 252 252 252 252 252 253 253 253 254 254 254 255 255 255 256 256 256 256 257 257 258 258 259 259 260 260 261 261 262 263 263 263 263 263 263 264 264 265 266 267 269 271 272 272 271 271 271 270 270 271 272 273 274 275 274 274 275 275 276
260 259 258 258 257 256 254 253 252 250 249 248 248 247 247 246 246 246 246 246 246 247 247 248 248 249 250 251 251 252 252 252 253 253 253 253 253 254 254 255 255 255 255 256 256 257 257 257 257 258 258 259 259 260 260 261 261 262 262 263 263 263 263 264 264 265 266 267 269 271 271 272 271 270 270 268 269 270 271 273 274 274 274 274 275 275 275 275
260 260 259 258 257 256 255 253 252 250 249 248 247 247 246 246 246 246 246 246 246 246 247 247 248 249 250 251 251 252 253 253 253 254 254 254 254 254 255 255 255 256 256 256 256 257 257 257 258 258 258 259 259 260 260 261 261 262 262 262 262 263 263 264 265 266 267 269 270 271 271 271 270 269 268 267 269 271 272 273 273 273 274 275 275 274 273 272
261 260 259 258 256 256 254 253 252 251 250 249 248 247 246 246 246 245 245 246 246 246 247 248 248 249 250 251 252 252 253 254 254 255 255 255 256 256 256 256 256 256 256 256 256 257 257 257 258 258 259 259 259 260 260 261 261 261 262 262 262 263 264 264 265 267 268 269 269 270 269 268 268 267 267 268 269 271 271 272 272 273 273 274 273 272 271 271
260 259 257 256 254 254 253 253 253 252 251 250 249 248 247 246 246 246 246 246 246 247 247 248 249 249 250 251 252 253 254 255 255 256 256 256 257 257 257 257 257 257 257 257 257 257 257 257 258 258 258 259 259 259 260 260 261 261 261 262 262 263 263 264 266 267 267 267 267 266 265 265 266 268 269 269 268 269 270 271 271 271 271 271 270 269 270 272
259 256 255 253 251 251 250 251 252 253 253 252 251 250 249 248 247 246 246 246 247 247 248 248 249 250 250 251 252 253 254 255 256 256 257 257 258 258 258 258 258 258 258 258 258 258 258 258 258 258 258 258 259 259 259 260 260 261 261 261 262 262 263 264 265 265 265 265 264 263 264 265 266 267 267 266 265 267 269 270 270 269 268 268 268 269 271 273
257 254 251 249 248 248 248 249 251 252 253 253 252 252 251 250 249 248 248 247 247 248 248 248 249 250 251 252 253 254 255 256 257 257 258 258 258 258 258 259 259 259 259 258 258 258 258 258 258 258 258 258 258 259 259 260 260 260 260 260 261 261 262 262 263 263 263 262 262 263 263 264 264 264 264 264 266 268 268 268 268 267 266 265 267 269 271 272
254 251 248 247 248 248 249 250 251 252 253 253 253 252 252 251 251 250 250 249 249 249 249 250 250 251 252 253 254 255 256 257 258 258 258 259 259 259 259 259 259 259 259 259 259 258 258 258 258 258 258 258 258 258 258 258 258 258 258 259 259 260 261 261 261 260 259 259 261 263 262 261 262 263 263 264 265 266 266 266 266 266 265 264 266 268 270 269
251 250 249 250 251 252 253 253 254 254 254 254 253 253 252 252 251 251 251 250 251 251 251 251 252 252 253 254 255 256 257 258 259 259 260 260 260 260 260 261 260 260 260 259 259 258 258 258 257 257 257 257 257 257 257 257 257 257 258 258 259 259 259 259 257 257 257 258 261 262 261 260 261 261 262 263 263 263 264 265 266 265 265 264 265 267 268 268
252 251 252 254 256 256 257 256 256 256 255 255 255 255 254 253 252 252 252 251 252 252 252 253 253 254 255 256 257 257 258 258 259 260 261 261 262 262 262 262 261 261 260 259 259 258 258 257 257 257 256 256 256 255 255 255 255 256 257 257 257 257 256 256 255 255 257 259 259 260 260 260 260 261 261 261 261 262 264 266 266 265 264 264 264 266 267 268
254 254 255 256 258 259 259 258 258 257 257 257 257 257 256 255 255 254 254 254 254 254 254 255 256 256 257 257 258 259 259 259 260 261 262 263 264 264 263 263 262 262 261 260 259 258 258 257 257 257 256 255 255 255 254 254 254 255 254 254 255 255 255 255 255 256 257 258 258 259 259 260 260 260 260 260 261 263 265 267 266 264 263 264 264 265 267 267
255 256 257 258 259 259 260 260 259 258 258 258 258 258 258 258 257 257 256 256 256 256 256 256 257 257 258 259 259 259 260 261 262 263 264 264 265 265 265 264 264 263 262 261 260 259 259 258 258 257 256 255 255 256 255 254 254 254 254 255 255 255 256 256 255 256 256 257 258 259 259 259 260 260 260 261 262 264 265 265 265 264 264 264 264 265 266 266
256 257 258 259 260 260 261 261 261 261 260 260 260 260 260 260 260 259 259 258 258 257 257 256 257 257 257 258 259 259 261 262 262 263 264 264 265 266 266 265 265 264 263 262 261 261 260 259 259 258 257 257 257 256 255 255 254 254 255 256 256 255 256 256 256 256 257 259 260 259 258 259 259 259 260 262 264 266 266 263 263 264 264 262 262 263 265 265
258 259 260 261 262 262 263 263 263 263 262 262 262 262 262 262 261 261 261 260 260 259 258 258 257 257 257 257 258 259 260 260 261 262 264 265 265 265 265 265 265 264 263 262 261 261 261 261 260 259 259 258 257 256 255 256 256 255 256 256 255 255 255 255 257 258 258 258 258 258 258 258 258 259 260 262 265 266 264 261 262 263 262 260 259 260 262 263
261 262 263 264 265 265 266 265 265 265 264 264 264 263 263 263 263 262 262 261 261 260 260 259 258 257 257 257 258 258 259 260 260 262 263 264 264 264 265 265 264 263 261 260 260 261 262 262 262 261 260 259 258 258 257 257 257 256 255 255 256 256 255 256 258 258 257 256 257 258 259 258 259 260 260 261 262 262 260 260 262 263 261 258 257 258 260 261
264 266 267 268 268 268 268 268 267 267 267 266 265 265 264 264 264 263 263 262 261 260 260 259 258 258 258 257 257 258 259 260 261 261 262 263 263 263 264 264 264 264 263 261 260 260 260 262 263 263 261 260 260 259 259 258 257 257 257 257 258 257 256 256 256 256 256 256 256 257 258 258 258 258 258 259 260 259 261 262 262 262 262 260 258 258 259 260
266 268 269 270 271 271 270 269 268 267 267 267 266 266 265 264 264 264 263 262 261 260 259 258 258 258 258 257 257 258 258 259 259 260 261 261 262 263 263 264 264 265 265 264 263 262 261 262 263 264 262 261 260 260 260 259 258 259 260 257 255 254 254 252 250 251 255 256 255 255 256 256 256 258 259 259 258 258 261 264 263 262 262 260 258 258 258 259
268 269 270 272 272 272 271 269 268 266 266 265 265 265 265 265 265 264 264 263 262 260 259 258 258 258 258 257 257 257 257 257 258 259 260 260 261 262 262 262 263 263 264 265 265 265 265 264 264 263 262 262 263 264 262 261 262 260 257 255 251 250 253 253 251 250 254 257 257 255 256 258 257 257 260 259 255 254 258 264 265 266 264 261 260 260 260 260
268 270 271 272 272 270 269 268 267 265 264 263 263 263 263 264 265 265 264 264 263 261 260 259 258 258 258 258 257 257 257 257 258 259 260 260 260 261 261 262 262 262 262 263 264 266 265 264 264 263 264 265 266 267 266 264 263 259 255 256 257 256 256 257 255 250 249 254 257 255 257 262 260 255 257 260 257 252 253 259 264 266 267 266 264 264 264 263
268 269 271 271 269 267 266 265 265 264 264 264 263 263 263 263 264 265 265 265 264 263 262 260 259 258 258 258 257 257 257 257 258 259 260 260 260 260 260 261 261 261 261 261 262 263 262 262 262 264 266 267 266 266 267 265 263 262 260 259 260 262 261 257 255 250 244 245 253 259 264 268 267 259 254 255 257 257 259 262 265 266 268 270 269 266 265 266
267 268 269 269 266 265 264 264 265 265 265 266 266 265 264 263 263 265 266 266 266 266 265 262 260 258 258 258 257 257 257 258 259 259 258 258 258 259 260 260 261 261 261 261 262 261 260 260 262 265 266 264 262 263 264 264 264 264 263 261 260 262 263 261 257 254 250 246 250 258 262 264 266 266 262 258 257 256 260 266 268 269 270 270 269 268 267 266
266 267 268 267 264 263 264 265 266 266 267 267 268 267 266 265 264 264 265 266 267 267 267 266 263 261 259 258 258 257 257 258 258 258 258 258 258 258 259 260 260 261 261 261 261 260 259 260 262 265 263 259 259 261 263 262 262 261 261 262 260 260 261 261 260 259 258 256 255 254 252 254 261 268 270 268 263 256 253 260 265 268 270 269 268 269 269 266
265 266 266 266 264 263 264 265 266 267 268 268 268 268 268 267 266 266 266 266 266 266 266 267 266 264 262 261 261 260 258 257 257 259 259 258 258 259 259 260 259 260 261 259 259 259 260 261 263 263 259 258 260 260 259 259 260 261 261 260 260 259 259 260 261 262 260 258 256 254 252 254 260 265 268 270 268 262 253 252 259 264 267 268 268 269 268 266
264 265 265 265 264 264 264 264 265 266 267 268 269 269 270 270 269 269 268 268 268 267 266 266 266 265 265 264 264 263 261 259 258 259 260 259 258 259 259 260 260 260 260 260 260 260 260 261 262 261 258 258 259 258 256 257 259 260 261 260 260 259 259 260 261 260 259 257 256 256 256 259 261 261 264 267 268 266 260 253 256 261 265 267 268 268 267 266
263 264 265 265 265 264 264 264 264 265 266 267 268 269 270 271 271 271 271 271 270 269 268 267 267 266 266 266 266 265 264 262 260 260 262 261 258 258 259 260 260 261 260 260 261 261 261 261 260 260 259 259 260 259 257 257 258 259 261 261 260 260 260 260 260 259 257 257 257 257 257 258 260 260 261 264 264 265 264 260 257 260 264 267 268 268 268 267
262 263 264 265 265 264 264 264 264 264 265 266 267 268 269 270 271 272 272 272 271 271 271 271 270 269 268 268 267 266 265 264 262 261 263 264 261 259 259 260 261 261 261 261 261 260 261 261 261 261 260 260 260 260 258 258 258 260 261 261 261 261 261 261 260 259 257 256 257 259 258 256 258 260 260 260 262 262 263 262 259 258 263 267 268 268 268 267
262 263 264 265 265 265 264 264 264 264 265 265 266 267 268 269 270 271 271 271 270 270 271 272 272 271 270 270 269 268 267 265 264 263 263 264 264 262 261 261 262 262 261 262 262 261 260 261 262 263 262 261 261 261 261 260 259 259 259 260 261 261 262 262 262 260 258 257 258 260 259 255 257 259 259 259 260 261 262 262 261 259 260 264 267 267 267 266
262 262 263 264 265 265 265 265 265 265 265 265 266 267 268 268 269 269 269 269 269 270 270 271 272 272 272 272 271 271 270 268 267 266 265 265 265 264 264 263 262 263 263 263 262 262 260 260 261 263 264 264 262 262 263 263 262 260 260 260 261 261 262 263 263 262 261 259 259 259 257 256 257 260 261 260 259 260 261 263 264 263 262 261 262 264 265 266
261 262 263 264 265 265 266 266 266 266 266 267 267 267 268 268 268 269 268 268 269 269 269 270 271 271 271 272 272 271 270 269 269 268 268 267 266 265 265 265 264 264 264 264 263 262 262 261 260 261 263 264 264 263 263 264 264 263 262 262 262 262 262 262 262 263 263 262 260 258 257 256 258 261 261 260 260 259 260 262 264 265 265 263 260 260 261 263
261 262 263 263 264 265 266 267 267 267 267 267 268 268 268 269 269 269 269 269 269 269 269 269 269 270 270 270 270 270 269 268 267 267 267 268 268 267 267 267 266 266 266 265 264 264 264 263 262 261 262 263 264 264 264 264 264 264 264 263 264 264 263 263 263 263 263 263 262 260 260 258 256 260 262 261 260 261 260 259 259 261 263 264 262 260 259 259
262 262 263 263 264 266 267 267 267 268 268 268 268 269 269 269 269 270 270 270 270 270 270 270 270 270 270 269 269 269 268 267 266 266 266 266 267 268 268 267 268 267 267 266 266 266 267 267 265 264 264 263 263 264 265 264 263 263 264 264 264 264 264 263 263 263 263 262 262 262 263 261 258 259 262 262 261 261 260 258 257 257 258 261 263 263 261 259
263 263 264 265 266 267 267 268 268 268 268 268 269 269 269 270 270 270 271 271 271 271 271 271 270 270 270 269 268 268 268 267 267 266 266 266 266 266 266 266 266 267 266 266 267 268 268 268 267 267 267 266 266 265 266 265 264 264 264 265 264 264 264 263 262 262 262 262 262 263 263 263 262 261 263 264 262 260 260 259 259 257 256 257 260 262 262 261
264 265 266 266 267 268 268 269 269 269 269 269 270 270 270 270 271 271 271 272 272 272 272 272 272 271 270 270 269 268 268 268 267 266 266 266 266 266 266 266 265 265 265 266 266 266 266 267 267 267 266 267 268 268 267 266 266 266 265 265 264 264 264 264 263 262 261 261 263 264 263 263 262 261 262 264 263 262 262 261 259 258 256 255 255 259 262 262
266 267 268 268 269 269 270 270 270 271 271 271 271 272 272 272 272 272 272 272 273 273 273 272 273 273 272 272 271 271 270 269 269 268 268 267 266 266 267 267 266 264 265 266 265 265 265 266 267 266 265 266 267 267 266 266 266 266 266 265 266 265 264 264 263 262 262 261 263 264 264 263 262 261 261 263 264 263 263 262 261 259 258 257 255 255 257 260
268 269 270 270 271 271 271 272 272 272 272 272 273 273 273 273 273 273 273 272 273 274 274 273 273 273 273 273 272 272 271 271 270 270 269 268 267 266 266 266 266 266 267 267 266 266 266 266 266 266 266 265 264 265 266 267 266 265 265 265 265 265 264 263 263 263 263 262 262 263 263 262 262 263 263 264 265 264 262 262 262 260 259 258 258 256 256 257
270 271 271 272 272 272 273 273 273 274 274 274 274 274 274 274 274 273 273 273 273 274 275 275 274 273 274 274 274 273 272 273 272 271 270 269 268 268 267 267 266 266 267 267 267 267 267 266 266 265 266 265 264 264 266 267 267 266 265 264 263 263 263 263 264 264 264 262 262 262 263 262 262 263 264 264 265 265 264 263 263 262 260 259 259 259 258 258
271 271 272 273 274 274 274 275 275 275 275 275 275 275 274 274 274 274 274 274 274 274 275 276 277 276 275 275 275 274 274 274 274 273 272 271 271 271 270 269 268 267 268 269 269 268 267 267 267 266 266 266 265 265 265 265 266 266 266 264 263 263 263 263 262 262 263 263 262 262 263 262 262 262 262 263 263 263 264 263 263 263 263 262 260 259 259 260
272 273 274 275 275 276 276 276 276 276 276 276 276 276 275 274 274 275 276 276 276 276 275 275 275 276 276 275 275 275 274 273 273 274 274 273 272 273 272 271 272 272 272 272 271 269 268 268 268 269 267 267 267 266 265 264 264 264 264 264 264 265 264 264 263 262 262 262 261 261 262 263 263 262 261 261 262 262 263 263 263 264 265 265 264 261 260 260
274 275 276 276 276 276 276 276 276 276 277 277 277 277 277 276 275 276 277 277 276 275 276 276 275 275 276 276 276 277 276 275 274 274 275 275 274 274 273 274 276 276 275 275 273 272 270 270 271 273 271 270 270 269 267 265 265 265 265 265 266 266 266 265 265 264 262 261 260 260 261 262 263 263 261 261 261 262 262 263 264 264 264 265 265 264 263 262
275 276 276 276 276 276 276 276 276 277 277 278 278 277 277 277 276 275 276 278 278 276 275 275 275 276 276 276 277 277 278 279 277 275 274 275 275 274 274 276 279 278 277 276 276 274 273 271 273 275 275 274 273 272 271 269 268 268 267 267 267 268 268 267 267 267 266 265 263 261 261 262 264 263 262 261 261 261 262 263 263 264 263 264 264 265 265 264
275 276 276 275 276 276 276 276 276 276 276 275 275 275 275 275 275 274 272 274 277 280 279 276 276 276 276 277 277 278 280 281 282 282 280 279 278 276 277 279 280 280 279 277 276 277 278 276 272 272 275 277 276 275 274 273 272 271 269 268 268 269 270 270 270 271 271 270 268 265 261 260 263 263 262 262 261 262 262 263 263 263 263 263 263 263 264 263
275 276 276 276 276 276 276 276 276 275 274 273 271 270 269 271 274 275 273 272 272 275 278 279 279 278 277 277 278 279 281 282 284 285 285 285 284 282 282 282 281 281 281 279 278 279 280 278 275 273 275 277 278 278 277 276 274 272 272 271 272 273 273 273 273 273 273 272 271 268 263 259 260 262 262 262 263 262 262 262 263 263 262 262 262 262 262 262
274 275 276 276 276 276 276 276 274 272 270 269 269 269 268 268 269 272 274 275 273 272 274 277 278 278 278 278 279 280 280 282 283 284 284 285 285 285 285 284 282 280 280 281 282 281 279 278 278 278 277 276 277 278 278 277 275 274 276 277 277 276 275 275 274 273 272 272 272 270 267 263 263 263 263 263 263 262 262 262 262 262 262 262 261 260 261 261
274 275 275 274 274 274 273 272 273 272 270 267 268 270 272 271 270 270 272 276 276 273 273 275 276 278 278 278 279 280 280 280 281 282 283 284 284 285 285 284 283 281 281 281 281 281 281 280 280 278 276 277 278 278 278 277 277 278 279 280 280 279 278 277 276 274 273 272 272 271 269 267 266 265 265 265 265 264 263 262 261 261 261 262 261 260 260 260
274 274 272 272 273 273 271 269 270 272 273 272 272 272 274 275 274 273 273 274 277 276 275 275 275 276 277 278 279 280 280 281 281 282 283 283 284 285 285 283 281 281 282 280 279 279 280 281 280 279 279 280 279 278 276 277 278 280 280 281 282 282 282 280 278 275 273 272 271 271 270 269 267 267 267 267 266 265 263 262 261 260 260 261 262 262 261 261
272 272 271 271 272 274 274 273 273 273 274 274 274 275 275 275 275 275 274 272 274 277 278 277 276 276 277 278 280 281 281 282 283 283 283 284 285 285 285 283 281 280 279 279 280 280 279 279 280 281 281 280 276 274 275 276 278 280 280 281 282 282 282 280 278 276 275 273 272 273 274 271 267 266 266 266 265 264 263 262 261 261 261 261 261 262 262 263
272 273 274 275 275 275 275 275 275 275 275 276 276 276 277 277 277 277 276 273 272 273 276 279 281 280 279 279 280 281 282 283 284 284 284 285 285 284 284 283 282 281 279 278 280 280 279 279 280 279 278 277 275 274 274 275 277 279 279 280 280 280 279 278 277 278 279 278 276 276 275 272 266 262 262 263 263 263 263 262 262 261 261 260 261 261 262 262
275 275 275 276 277 276 275 276 275 274 275 276 277 278 279 280 281 282 282 281 278 276 276 278 282 284 285 283 282 282 282 283 284 285 285 285 283 282 282 281 282 283 282 281 280 278 277 277 277 277 277 276 275 274 274 274 275 276 277 278 279 278 277 277 279 280 280 278 276 274 271 270 268 265 262 261 262 263 263 263 262 261 261 261 261 262 262 262
277 276 276 276 277 277 277 278 279 279 279 279 280 281 281 281 282 283 285 286 284 283 281 280 282 285 286 285 284 283 282 282 283 284 284 283 282 281 281 281 281 282 282 282 281 278 277 275 274 274 274 276 277 276 274 274 274 274 275 277 278 277 278 279 279 278 276 275 274 272 270 270 272 270 264 260 260 261 262 263 263 263 263 263 263 262 262 262
275 276 277 278 279 280 281 282 283 284 284 284 284 283 283 283 283 283 285 286 286 286 284 283 283 283 283 284 285 284 283 283 283 282 281 281 281 281 280 281 281 281 281 280 279 278 278 276 273 272 271 273 275 274 274 275 274 274 276 277 277 277 277 276 275 274 274 275 275 273 271 269 269 267 264 262 262 262 263 264 264 264 264 264 264 263 262 261
277 278 279 281 283 283 283 284 284 283 283 284 284 284 285 285 285 285 286 286 286 286 286 285 284 283 282 283 284 283 283 283 283 281 279 279 279 279 280 280 280 280 281 280 278 278 278 277 275 274 273 272 271 271 272 274 274 277 281 280 277 274 273 272 273 275 276 276 275 274 273 270 266 264 265 265 264 264 264 265 266 265 265 264 263 262 262 262
281 281 282 283 283 283 283 283 282 282 283 283 284 284 285 285 285 285 285 285 285 285 285 285 285 283 283 283 283 284 284 283 282 280 280 280 279 278 279 279 279 279 279 279 278 279 278 277 276 275 275 273 271 271 271 271 274 280 281 276 273 273 273 275 276 276 275 273 272 272 272 271 268 266 267 267 266 265 265 265 265 265 264 263 262 262 262 263